This demonstration page uses our WeatherBlox Daily Observations layout. Learn more.

Left ArrowRight Arrow

39.92423, -83.80882

Hourly Observations for August 3, 2020

Temp ( °F °C ) Dew Point ( °F °C ) Humidity (%) Winds ( mph kmh ) Pressure ( in mb ) Visibility ( mi km ) Precip ( " mm )
12:56 am 00:56 Clear 65 18.3 65 18.3 100 100 E 3 6 30.00 1016 10 16 N/A
1:56 am 01:56 Clear 63 17.2 63 17.2 100 100 SE 3 6 29.99 1016 10 16 N/A
2:56 am 02:56 Clear with Mist and Fog 61 16.1 61 16.1 100 100 N N/A 29.98 1015 5 8 N/A
3:56 am 03:56 Mostly Cloudy 63 17.2 63 17.2 100 100 SSE 5 7 29.98 1015 9 14 N/A
4:56 am 04:56 Mostly Clear 64 17.8 64 17.8 100 100 S 3 6 29.97 1015 9 14 N/A
5:56 am 05:56 Mostly Cloudy 65 18.3 65 18.3 100 100 N N/A 29.98 1015 10 16 N/A
6:56 am 06:56 Cloudy 65 18.3 65 18.3 100 100 S 3 6 30.00 1016 10 16 N/A
7:56 am 07:56 Cloudy 66 18.9 66 18.9 100 100 S 3 6 30.01 1016 9 14 N/A
8:56 am 08:56 Partly Cloudy 69 20.6 69 20.6 100 100 SSW 6 9 30.02 1017 10 16 N/A
9:56 am 09:56 Sunny 73 22.8 70 21.1 90 90 SW 6 9 30.02 1017 10 16 N/A
10:56 am 10:56 Mostly Sunny 74 23.3 70 21.1 88 88 VRB 3 6 30.02 1017 10 16 N/A
11:13 am 11:13 Mostly Cloudy 73 23 70 21 89 89 WSW 3 6 29.99 1016 10 16 N/A
11:21 am 11:21 Partly Cloudy 75 24 72 22 89 89 SSW 5 7 29.99 1015 10 16 N/A
11:56 am 11:56 Mostly Cloudy 75 23.9 70 21.1 84 84 WSW 7 11 30.01 1016 10 16 N/A
12:28 pm 12:28 Mostly Cloudy 75 24 70 21 83 83 WSW 5 7 29.98 1015 10 16 N/A
12:56 pm 12:56 Mostly Cloudy 76 24.4 70 21.1 82 82 N N/A 30.00 1016 10 16 N/A
1:35 pm 13:35 Partly Cloudy 79 26 70 21 74 74 SSW 10 17 29.95 1014 10 16 N/A
1:56 pm 13:56 Mostly Sunny 79 26.1 70 21.1 74 74 S 7 11 29.98 1015 10 16 N/A
2:56 pm 14:56 Partly Cloudy 80 26.7 67 19.4 64 64 SW 9 15 29.97 1015 10 16 N/A
3:56 pm 15:56 Mostly Sunny 80 26.7 67 19.4 64 64 WNW 5 7 29.94 1014 10 16 N/A
4:56 pm 16:56 Partly Cloudy 81 27.2 66 18.9 61 61 VRB 3 6 29.93 1014 10 16 N/A
5:41 pm 17:41 Cloudy with Thunderstorms 75 24 66 19 74 74 N 9 15 29.90 1012 10 16 0.13 3.30
5:56 pm 17:56 Cloudy with Thunderstorms 74 23.3 69 20.6 85 85 WNW 7 11 29.94 1014 8 13 0.13 3.30
6:41 pm 18:41 Cloudy with Rain 70 21 70 21 100 100 WNW 15 24 29.94 1014 5 8 0.01 0.25
6:49 pm 18:49 Cloudy with Thunderstorms 68 20 68 20 100 100 WNW 9 15 29.95 1014 6 10 0.01 0.25
6:56 pm 18:56 Cloudy with Thunderstorms 68 20 68 20 100 100 NW 7 11 29.96 1015 9 14 0.01 0.25
7:05 pm 19:05 Cloudy with Light Rain 68 20 68 20 100 100 NW 6 9 29.94 1014 10 16 0.00 0.00
7:44 pm 19:44 Cloudy with Rain 68 20 68 20 100 100 N N/A 29.96 1015 6 10 0.00 0.00
7:53 pm 19:53 Cloudy with Rain 68 20 68 20 100 100 E 3 6 29.97 1015 5 8 N/A
7:56 pm 19:56 Cloudy with Rain 68 20 68 20 100 100 N N/A 29.99 1016 6 10 N/A
8:28 pm 20:28 Cloudy with Light Rain 68 20 68 20 100 100 N N/A 29.96 1015 6 10 N/A
8:56 pm 20:56 Mostly Cloudy 67 19.4 67 19.4 100 100 N N/A 29.97 1015 8 13 N/A
9:11 pm 21:11 Partly Cloudy 66 19 66 19 100 100 SE 3 6 29.95 1014 8 13 N/A
9:56 pm 21:56 Clear 66 18.9 66 18.9 100 100 SSE 6 9 29.96 1015 10 16 N/A
10:56 pm 22:56 Clear 65 18.3 65 18.3 100 100 N N/A 29.96 1015 10 16 N/A
11:56 pm 23:56 Mostly Clear 65 18.3 65 18.3 100 100 N N/A 29.96 1015 9 14 N/A

Powered by AerisWeather